Location: Caltech
(34.1382°N, 118.1253°W)
Time: 17:39:00
(UTC-07:00)

ITAMSAT 1 - Visible Passes

Search period start: 27 April 2017 00:00
Search period end: 07 May 2017 00:00
Orbit: 783 x 798 km, 98.8° (Epoch: 26 April)

Date Brightness Start Highest point End Pass type
(mag) Time Alt. Az. Time Alt. Az. Time Alt. Az.
27 Apr 7.9 04:05:14 10° NNE 04:10:23 66° ESE 04:13:04 28° S visible
28 Apr 9.1 03:36:20 10° NE 03:40:57 32° E 03:43:26 22° SE visible
28 Apr 8.8 05:16:04 10° NNW 05:20:13 25° WNW 05:24:11 11° WSW visible
29 Apr 10.0 03:08:13 10° NE 03:11:24 16° E 03:13:48 12° SE visible
29 Apr 7.9 04:46:06 10° N 04:51:04 48° WNW 04:54:33 19° SW visible
30 Apr 7.6 04:16:35 10° NNE 04:21:48 85° ESE 04:24:55 25° SSW visible
01 May 8.6 03:47:30 10° NNE 03:52:24 42° E 03:55:17 22° SSE visible
01 May 9.1 05:27:52 10° NNW 05:31:31 20° WNW 05:35:10 10° WSW visible
02 May 9.7 03:19:00 10° NE 03:22:54 21° E 03:25:39 15° SE visible
02 May 8.3 04:57:40 10° N 05:02:24 37° WNW 05:06:23 14° SW visible
03 May 7.6 04:28:00 10° N 04:33:11 75° WNW 04:36:45 21° SSW visible
04 May 8.2 03:58:45 10° NNE 04:03:50 55° E 04:07:06 22° S visible
05 May 9.3 03:29:58 10° NE 03:34:23 28° E 03:37:27 16° SE visible
05 May 8.6 05:09:18 10° N 05:13:44 29° WNW 05:18:09 10° SW visible
06 May 10.2 03:02:14 10° ENE 03:04:48 14° E 03:07:21 10° ESE visible
06 May 7.8 04:39:28 10° N 04:44:33 57° WNW 04:48:33 16° SSW visible
